www.pogodaiklimat.ru

Погода и климат >> Архив погоды >> Россия >> Краснодарский край >> Анапа


АРХИВ ПОГОДЫ в Анапе

Время (UTC), дата Ветер
(напр.,м/с)
 
Видим.   Явления Облачность Т
(С)
Тd
(С)
f
(%)
Тe
(С)
Тes
(С)
Комфортность P
(гПа)
Po
(гПа)
Тmin
(С)
Tmax
(С)
R
(мм)
S
(см)
03 17.02 СВ 2 н/о н/о -7.2 -10.6 77 -12 -12 очень
холодно
1031.8 1027.4 -7.4
06 17.02 СВ 2 10 км ясно -6.1 -10.3 72 -10 -8 холодно 1031.7 1027.3 -8.0
09 17.02 С 3 20 км ясно -1.5 -10.4 51 -6 -0 прохладно 1031.4 1027.2
12 17.02 С 2 20 км ясно +0.2 -9.6 48 -3 +1 прохладно 1029.8 1025.6
15 17.02 С 1 20 км ясно -1.2 -10.6 49 -3 -3 по сезону 1029.4 1025.1 +0.5
18 17.02 В 1 10 км ясно -3.3 -8.4 68 -5 -5 прохладно 1029.4 1025.1
21 17.02 Ю 5 10 км ясно +0.8 -7.0 56 -5 -5 по сезону 1029.1 1024.9
00 18.02 Ю 8-10
{11}
10 км 3/0
[Ac trans]
+1.8 -4.3 64 -5 -5 по сезону 1028.1 1023.9
03 18.02 Ю 10-13
{15}
10 км 8/8 600 м
[Sc]
+3.0 -2.8 66 -4 -4 по сезону 1026.7 1022.5 -3.8
06 18.02 Ю 9-13
{16}
10 км 10/10 600 м
[Sc]
+3.8 -2.1 65 -2 -2 по сезону 1026.4 1022.2
09 18.02 Ю 11-14
{15}
10 км 10/8 600 м
[Sc Cs]
+5.1 -1.1 64 -1 -1 по сезону 1025.8 1021.6
12 18.02 Ю 10-13
{14}
20 км 9/8 600 м
[Sc Ci sp]
+5.6 +0.3 69 -0 -0 по сезону 1024.7 1020.6
15 18.02 Ю 10-13
{13}
10 км 9/9 600 м
[Sc]
+5.5 +1.0 73 -1 -1 по сезону 1024.3 1020.2 +6.1
18 18.02 Ю 8-11
{13}
10 км 8/8 600 м
[Sc]
+5.4 +0.9 73 -0 -0 по сезону 1024.7 1020.5
21 18.02 -10
{12}
10 км н/о +5.8 +1.9 76 0 0 по сезону 1025.3 1021.2
00 19.02 Ю 8-11
{12}
10 км 8/8 600 м
[Sc]
+6.2 +3.0 80 +1 +1 по сезону 1025.7 1021.5
03 19.02 Ю 5
{11}
10 км 4/4 600 м
[Sc]
+6.2 +2.5 77 +2 +2 тепло 1026.5 1022.4 +5.4
06 19.02 Ю 6 10 км 9/3 600 м
[Sc Ci sp]
+6.7 +3.5 80 +2 +3 тепло 1027.9 1023.8
09 19.02 Ю 6
{10}
10 км 9/6 600 м
[Sc Ci sp]
+7.8 +2.9 71 +4 +5 тепло 1028.7 1024.6
12 19.02 Ю 6
{10}
10 км 9/9 600 м
[Sc]
+7.0 +3.1 76 +3 +3 по сезону 1028.3 1024.2
15 19.02 Ю 5 10 км 9/9 600 м
[Sc]
+6.9 +4.4 84 +3 +3 по сезону 1028.1 1024.0 +7.9
18 19.02 Ю 6 10 км 8/8 600 м
[Sc]
+7.0 +4.5 84 +3 +3 тепло 1027.5 1023.4
21 19.02 Ю 4 10 км 8/8 600 м
[Sc]
+7.2 +3.9 80 +4 +4 тепло 1027.2 1023.1
00 20.02 В 1 10 км 3/3 600 м
[Sc]
+4.4 +1.3 80 +3 +3 тепло 1026.3 1022.2
03 20.02 СВ 2 10 км 4/0
[Ac As]
+2.1 -1.1 79 -1 -1 по сезону 1025.2 1021.0 +2.0
06 20.02 В 1 10 км 8/0
[Ac trans]
+4.7 -0.3 70 +4 +5 тепло 1024.7 1020.6 +1.6
09 20.02 Ю 6 20 км ясно +9.7 +1.5 57 +7 +9 тепло 1023.1 1019.1
12 20.02 Ю 6 20 км 10/0
[Cs]
+9.0 +1.6 60 +6 +7 тепло 1020.9 1016.8
15 20.02 ЮВ 3
{11}
20 км 10/0
[Cs]
+9.9 -4.2 37 +8 +8 тепло 1019.0 1015.0 +10.3
18 20.02 В 1 10 км 10/0
[Ac und]
+8.6 -6.6 33 +9 +9 тепло 1018.0 1013.9
21 20.02 Ю 8 10 км 10/0
[Cs]
+8.4 +0.2 56 +4 +4 тепло 1016.7 1012.6
00 21.02 Ю 3
{12}
10 км слабый ливневой дождь 10/10 300 м
[Cb cap]
+7.0 +5.2 88 +4 +4 тепло 1015.8 1011.7
03 21.02 ЮЗ 10-13
{13}
4000 м слабый ливневой дождь 10/10 300 м
[Cb cap]
+6.9 +4.8 86 +1 +1 по сезону 1014.9 1010.9 +6.1 0.7
06 21.02 Ю 8-11
{14}
10 км {ливн. осадки} 10/10 300 м
[Cb cap]
+6.6 +3.3 79 +1 +1 по сезону 1015.2 1011.1
09 21.02 Ю 12-16
{16}
10 км 10/10 300 м
[Cb cap]
+6.8 +3.8 81 +1 +1 по сезону 1014.9 1010.8
12 21.02 Ю 11-16
{17}
10 км в посл. час ливневой дождь 10/10 300 м
[Cb cap]
+5.9 +3.9 87 -1 -1 по сезону 1013.4 1009.3
15 21.02 Ю 12-16
{19}
10 км в посл. час ливневой дождь 10/10 300 м
[Cb cap]
+6.3 +3.8 84 -0 -0 по сезону 1012.4 1008.3 +7.7 0.8
18 21.02 ЮЗ 11-14
{16}
10 км {ливн. осадки} 10/10 300 м
[Cb cap]
+6.8 +4.7 86 +1 +1 по сезону 1012.1 1008.1
21 21.02 ЮЗ 12-15
{16}
10 км 10/10 300 м
[Cb cap]
+6.6 +4.0 83 0 0 по сезону 1011.6 1007.6
00 22.02 Ю 14-18
{18}
10 км 10/10 300 м
[Cb cap]
+7.1 +2.6 73 +1 +1 по сезону 1011.1 1007.1
03 22.02 Ю 13-19
{20}
10 км 10/8 600 м
[Sc Ac und]
+7.4 +4.1 80 +1 +1 по сезону 1010.3 1006.3 +5.8 0.3
06 22.02 Ю 12-16
{19}
10 км 10/0
[Ac und]
+7.7 +5.4 85 +2 +2 тепло 1009.6 1005.6
09 22.02 ЮЗ 17-21
{21}
10 км слабый ливневой дождь 10/10 300 м
[Cb cap]
+6.2 +4.4 88 -1 -1 по сезону 1008.2 1004.2
12 22.02 ЮЗ 12-14
{22}
10 км слабый ливневой дождь 10/10 300 м
[Cb cap]
+5.9 +4.1 88 -1 -1 по сезону 1007.4 1003.3
15 22.02 З 2
{14}
10 км в посл. час ливневой дождь 10/10 300 м
[Cb cap]
+5.1 +3.7 91 +2 +2 по сезону 1009.5 1005.4 +7.8 9
18 22.02 З 4
{11}
10 км {ливн. осадки} 10/9 600 м
[Sc Ac und]
+5.8 +3.1 83 +2 +2 по сезону 1012.6 1008.5
21 22.02 З 5-10
{13}
10 км 10/10 600 м
[Cb cap]
+6.3 +3.2 81 +2 +2 по сезону 1014.5 1010.4
00 23.02 ЮЗ 5
{10}
10 км ясно +6.8 +0.7 65 +3 +3 тепло 1014.6 1010.6
03 23.02 Ю 10-13
{14}
10 км 10/10 600 м
[Cb cap]
+6.9 +4.8 86 +1 +1 по сезону 1014.7 1010.6 +4.8
06 23.02 Ю 15-19
{19}
10 км 10/10 600 м
[Cb cap]
+7.2 +3.4 77 +1 +1 по сезону 1013.2 1009.2
09 23.02 Ю 17-22
{24}
10 км 10/8 600 м
[Sc Ac und]
+7.5 +4.3 80 +1 +1 по сезону 1010.9 1006.9
12 23.02 Ю 14-18
{23}
10 км 10/10 600 м
[Cb cap]
+8.5 +5.7 83 +3 +3 по сезону 1009.5 1005.5
15 23.02 Ю 11-14
{19}
10 км 10/10 600 м
[Sc]
+8.6 +6.1 84 +3 +3 по сезону 1009.1 1005.1 +8.7
18 23.02 Ю 8-11
{15}
4000 м в посл. час ливневой дождь 10/10 600 м
[Cb cap]
+8.1 +6.8 91 +3 +3 тепло 1010.3 1006.3
21 23.02 Ю 6
{11}
4000 м дымка 8/8 600 м
[Sc]
+8.0 +7.0 93 +4 +4 тепло 1012.2 1008.2
00 24.02 Ю 4 4000 м дымка 10/10 600 м
[Sc]
+7.8 +7.0 95 +4 +4 тепло 1012.7 1008.7

 

Местоположение метеостанции Анапа (Краснодарский край, Россия): широта 44.88 долгота 37.28 высота над уровнем моря 32 м.

В архиве по умолчанию представлена погода в Анапе за последнюю неделю. Архивные данные за месяц целиком и за предыдущие месяцы, начиная с января 2011 года, Вы можете получить, выбрав интересующий диапазон дат из раскрывающегося списка и нажав кнопку "Ввод!".

Внимание! Время в таблицах - всемирное. Для получения местного времени необходимо прибавить поправку, которая в Анапе равна 3 ч.

Смотрите также архив погоды в соседних городах и на ближайших метеорологических станциях:

Погода в Новороссийске (Краснодарский край, Россия) (48 км)
Погода в Темрюке (Краснодарский край, Россия) (50 км)
Погода в Крымске (Краснодарский край, Россия) (57 км)
Погода в Тамани (Краснодарский край, Россия) (58 км)
Погода в Геленджике (Краснодарский край, Россия) (72 км)
Погода в Славянске-на-Кубани (Краснодарский край, Россия) (80 км)
Погода в Керчи (Крым, Россия) (86 км)
Погода в Джубге (Краснодарский край, Россия) (129 км)
Погода на Мысовом (Крым, Россия) (131 км)
Погода в Краснодаре (Краснодарский край, Россия) (139 км)

Пояснения к столбцам:

Ветер - указаны скорость ветра в м/с - средняя за 10 мин, порывы в срок и между сроками (в фигурных скобках) и направление, откуда дует ветер: С - северный, СВ - северо-восточный, В - восточный, ЮВ - юго-восточный, Ю - южный, ЮЗ - юго-западный, З - западный, СЗ - северо-западный.
Видимость - горизонтальная дальность видимости в метрах или километрах. При видимости от 1 до 10 км при отсутствии осадков обычно наблюдается дымка, при ухудшении видимости до 1 км и менее - туман. В сухую погоду видимость может ухудшаться дымом, пылью или мглою.
Явления - указаны атмосферные явления, наблюдавшиеся в срок или в последний час перед сроком; фигурными скобками обозначены явления, наблюдавшиеся между сроками (за 1-3 часа до срока); квадратными скобками обозначены град или гололедные отложения с указанием их диаметра в мм.
Облачность - указаны через наклонную черту общая и нижняя облачность в баллах и высота нижней границы облаков в метрах; квадратными скобками обозначены формы облаков: Ci - перистые, Cs - перисто-слоистые, Cc - перисто-кучевые, Ac - высококучевые, As - высокослоистые, Sc - слоисто-кучевые, Ns - слоисто-дождевые, Cu - кучевые, Cb - кучево-дождевые. Подробнее классификацию облаков см. в Атласе облаков (PDF).
T - Температура воздуха - температура, измеренная на высоте 2 м над землей.
Td - Температура точки росы - температура, при понижении до которой содержащийся в воздухе водяной пар достигнет насыщения.
f - Относительная влажность воздуха - влажноcть воздуха, измеренная на высоте 2 м над землей.
Te - Эффективная температура - температура, которую ощущает одетый по сезону человек в тени. Характеристика душности погоды. При расчете учитывается влияние влажности воздуха и скорости ветра на теплоощущения человека.
Tes - Эффективная температура на солнце - температура, которую ощущает человек, с поправкой на солнечный нагрев. Характеристика знойности погоды. Зависит от высоты солнца над горизонтом, облачности и скорости ветра. Ночью, в пасмурную погоду, а также при ветре 12 м/с и более поправка равна нулю.
P - Атмосферное давление - приведенное к уровню моря атмосферное давление.
Po - Атмосферное давление - измеренное на уровне метеостанции атмосферное давление.
Tmin - Минимальная температура - минимум температуры воздуха на высоте 2 м над землей.
Tmax - Максимальная температура - максимум температуры воздуха на высоте 2 м над землей.
R - Количество осадков - Количество выпавших осадков, мм. При наведении курсора мыши на число - период времени, за который выпало указанное количество осадков.
S - Снежный покров - Высота снежного покрова, см. При наведении курсора мыши на число - состояние снежного покрова и степень покрытия местности в баллах.